Wind_Speed
7 7 5 5 5 3 3 2 2 3 3 4 4 5 7 8 9 11 13 14 15 15 15 15 15 16 16 17 18 18 18 18 18 18 17 17 17 17 17 17 17 17 16 16 16 15 15 15 15
9 8 7 6 5 5 3 3 4 5 5 5 6 7 8 10 12 13 14 16 17 17 17 17 18 18 19 20 21 22 23 22 22 21 20 19 19 19 19 19 19 19 18 18 17 17 16 15 15
10 9 8 7 6 6 5 5 6 6 6 7 8 9 10 12 13 15 16 17 18 18 19 19 20 21 21 22 23 24 25 25 24 24 23 22 21 21 21 21 21 21 20 20 19 18 17 17 16
11 10 9 8 7 7 6 6 6 7 7 8 9 11 13 14 15 16 17 18 18 19 20 20 21 22 22 23 24 25 27 27 27 26 26 25 24 24 24 23 23 23 23 22 21 20 19 18 17
13 11 10 8 8 8 8 7 8 8 9 9 11 13 14 16 17 17 17 18 19 20 20 20 21 21 23 24 24 25 27 28 28 28 28 28 28 27 26 25 24 24 24 23 23 22 20 19 18
14 13 11 10 9 9 9 8 8 8 10 11 13 15 16 16 17 17 18 18 18 19 19 19 20 21 22 22 23 24 25 26 27 28 29 30 30 30 29 28 27 26 25 25 24 23 22 20 19
15 14 12 11 10 10 10 9 9 11 11 13 14 15 16 16 16 17 17 17 17 17 17 18 18 19 19 20 21 22 23 24 25 26 28 29 30 31 31 31 30 28 27 28 26 25 23 22 20
17 15 14 12 12 11 11 11 11 12 13 14 15 15 15 16 16 16 16 16 16 16 16 17 17 17 18 18 19 19 20 21 22 23 24 26 28 29 31 32 31 30 29 28 27 26 25 24 21
17 16 15 13 13 13 12 11 11 12 14 15 15 15 15 15 16 16 15 14 14 15 15 15 16 17 17 17 17 18 19 19 20 21 22 23 26 27 29 30 30 31 30 28 28 26 27 26 24
18 17 16 15 14 13 12 12 12 14 14 15 15 15 14 14 14 14 13 13 13 13 13 14 15 15 16 16 16 17 17 18 18 19 20 21 23 25 27 28 28 29 30 29 28 27 26 26 25
20 19 18 16 15 13 12 13 12 13 13 14 14 13 13 13 13 12 11 11 11 12 12 12 13 14 15 15 15 16 16 17 17 18 19 20 21 22 23 24 26 27 28 29 28 28 27 26 25
21 19 17 15 14 14 13 13 13 13 12 13 13 13 13 12 11 11 10 10 10 10 10 11 12 13 13 14 15 15 16 16 16 16 17 17 18 19 20 22 24 25 26 27 28 28 27 26 25
21 19 17 15 14 14 13 12 12 12 12 12 13 13 13 11 10 9 8 9 9 9 9 10 11 12 13 13 14 15 15 15 15 16 16 16 16 17 18 19 20 22 24 25 26 27 27 25 25
21 18 17 15 14 14 13 12 12 12 12 12 12 12 11 10 9 8 8 8 7 7 8 9 10 12 13 14 14 15 15 15 15 15 15 15 15 15 15 17 18 19 21 23 25 26 27 26 26
20 18 17 15 14 14 13 13 14 13 12 12 12 11 10 9 8 7 7 6 5 6 7 8 10 12 13 14 15 15 15 16 16 15 14 13 12 12 13 14 15 17 19 20 23 25 26 26 26
19 17 16 15 14 14 14 14 14 13 13 13 12 11 10 8 7 6 5 4 5 6 7 8 10 11 13 14 14 15 15 16 16 15 14 12 10 9 10 11 13 15 17 18 21 24 25 25 26
18 16 15 14 14 15 15 14 14 13 13 13 12 11 9 7 6 6 5 4 4 5 7 8 10 11 12 13 14 15 16 16 16 15 14 12 9 8 8 9 11 12 14 15 17 21 24 24 25
16 15 15 15 14 14 14 14 13 12 13 13 12 10 8 7 6 5 5 4 4 5 6 8 9 11 12 13 14 15 16 16 16 15 14 12 10 8 6 7 8 9 11 13 15 18 21 22 23
15 14 14 14 14 13 13 12 14 13 13 12 11 10 8 7 6 6 5 4 4 5 6 7 9 10 12 13 14 15 16 16 16 15 14 12 10 9 7 5 6 6 8 10 13 16 19 20 21
14 13 13 13 12 13 13 13 15 14 13 12 11 10 8 7 6 6 6 5 4 5 6 7 8 10 11 12 14 15 15 16 16 16 15 13 11 9 7 6 4 4 6 8 10 13 15 18 20
15 13 14 13 12 12 13 13 14 14 13 12 11 10 9 8 7 7 7 5 5 5 5 7 8 9 11 12 13 14 15 16 16 16 15 14 13 11 9 6 4 2 2 4 7 10 13 15 17
15 14 14 13 12 12 12 12 14 14 13 12 11 11 10 9 8 8 7 6 5 5 5 7 8 9 10 11 12 13 14 15 15 15 15 15 14 12 10 8 6 4 1 1 4 6 9 12 15
15 14 13 13 12 12 13 13 12 13 12 11 11 11 11 10 9 8 8 6 5 5 5 7 8 9 10 11 12 13 13 14 14 15 15 15 14 13 12 10 8 6 3 1 1 3 6 8 11
14 14 13 13 12 12 13 13 12 13 12 11 11 11 11 11 10 9 8 7 6 5 5 6 7 9 10 10 11 12 12 13 13 14 14 14 14 13 12 11 10 8 6 3 1 1 3 6 8
13 13 13 13 13 13 13 13 12 13 12 11 11 11 11 11 11 10 9 7 6 5 5 6 7 8 9 10 10 11 11 12 12 13 13 13 14 13 12 12 11 9 7 5 3 1 1 3 6
14 13 13 13 13 13 13 13 12 13 12 12 11 11 12 11 11 10 9 8 7 6 5 5 7 8 9 9 10 10 11 11 11 12 12 12 13 13 12 12 11 10 9 7 5 3 2 2 5
13 13 13 14 14 13 13 13 13 13 12 12 12 12 12 12 12 11 10 8 7 6 5 5 6 7 8 9 9 10 10 10 11 11 11 12 12 12 12 12 11 10 9 8 6 5 3 2 3
13 14 14 14 15 14 12 12 13 13 13 12 12 13 13 13 13 12 11 9 8 7 6 5 6 7 8 8 9 9 9 10 10 10 10 11 11 11 11 11 11 10 9 8 7 6 5 3 2
14 14 15 16 15 15 13 11 13 13 13 13 13 14 14 14 14 13 12 10 9 7 6 6 6 6 7 8 8 9 9 9 9 9 10 10 10 10 10 10 10 10 9 8 8 7 6 5 4
15 15 17 17 17 15 14 12 14 14 14 14 14 15 15 15 15 14 13 12 10 8 7 6 6 6 6 7 8 8 9 9 9 9 10 10 10 10 10 10 9 9 9 8 7 7 6 5 5
Wind_Direction
265 269 279 292 292 293 305 274 275 270 262 274 285 293 302 306 305 300 300 299 298 296 293 292 291 287 285 282 281 280 277 274 270 267 264 259 254 251 247 243 241 239 238 237 235 235 237 238 238
260 266 278 284 276 282 283 277 290 278 269 281 291 296 302 305 305 303 300 299 297 295 292 291 290 287 284 282 280 279 278 276 273 270 268 263 258 254 250 246 243 240 239 238 238 237 236 237 238
259 267 275 277 279 271 274 289 291 283 279 287 294 299 302 304 304 302 301 299 297 296 295 293 290 288 286 283 280 278 277 275 274 271 269 265 261 258 253 249 246 242 240 239 237 236 235 235 236
258 265 271 275 270 269 274 289 287 282 287 294 299 302 302 303 303 303 302 301 301 300 299 297 294 291 288 284 280 277 275 273 273 270 267 266 264 261 257 253 249 244 242 240 239 236 234 234 235
256 263 268 273 268 266 277 291 293 286 286 293 297 302 303 304 304 304 304 304 304 303 302 299 297 295 292 288 283 278 274 273 271 269 267 267 265 261 259 256 252 246 243 241 240 238 234 233 233
255 260 262 265 270 271 283 289 292 293 292 295 298 300 302 304 305 306 307 307 307 307 306 304 302 300 297 292 289 284 279 276 273 271 269 268 265 262 259 256 255 251 246 242 241 238 234 233 232
250 252 253 259 266 276 282 281 284 296 300 300 300 300 302 304 306 309 310 309 310 311 311 310 308 307 303 299 296 292 287 283 278 275 271 268 265 263 259 255 253 252 249 244 241 240 235 231 231
245 248 252 258 265 274 277 279 287 295 302 305 303 301 303 305 309 310 310 311 313 314 315 315 315 313 310 307 303 298 292 288 283 279 275 269 266 262 259 255 252 251 249 246 243 240 236 232 230
243 247 247 254 261 272 277 281 290 298 303 307 304 303 304 307 310 311 312 314 317 319 319 317 316 314 312 310 307 304 300 294 288 283 279 272 266 262 259 256 252 249 248 248 245 241 238 236 232
239 243 245 251 260 270 275 284 293 301 302 305 305 306 307 309 311 312 315 319 321 321 321 320 320 319 318 317 315 312 307 302 295 288 283 278 271 266 262 255 252 249 248 247 245 241 238 237 234
237 242 245 251 258 268 280 288 294 299 301 305 307 308 310 311 312 314 317 321 323 324 326 328 328 328 328 327 324 320 316 310 303 296 289 282 276 270 264 259 254 250 247 246 244 242 239 237 234
236 240 246 249 257 268 280 289 293 296 301 304 305 308 311 311 312 315 318 321 324 328 332 334 334 335 336 335 332 328 324 318 310 303 297 289 281 272 265 260 256 251 247 245 243 241 238 237 234
232 238 245 251 259 270 280 287 292 295 297 301 302 305 308 310 312 315 318 323 328 335 340 342 342 344 344 342 339 336 332 328 322 312 303 294 285 275 266 260 257 252 248 244 240 239 237 234 231
231 238 243 251 260 271 279 281 290 293 295 297 298 301 304 307 313 316 317 323 332 341 345 347 350 352 351 350 348 346 342 338 332 324 313 301 289 278 269 262 258 254 249 244 238 235 233 233 230
229 236 241 249 258 267 275 278 286 290 292 293 296 298 301 305 310 311 315 323 334 345 350 352 355 355 355 355 353 352 349 347 345 339 329 316 301 285 271 263 258 255 250 243 238 232 231 231 227
225 231 239 247 256 266 273 277 282 283 287 290 293 294 296 300 303 303 306 313 330 343 348 352 355 356 358 358 357 357 356 354 353 350 343 333 318 299 280 266 260 255 250 242 237 233 230 229 225
220 227 237 245 253 264 270 274 276 279 283 286 287 289 290 291 291 293 293 301 324 336 343 349 354 358 1 2 1 1 0 360 358 356 353 346 335 316 292 275 264 256 249 241 235 231 231 230 227
214 222 233 243 254 262 266 271 276 280 282 283 282 283 282 282 279 279 281 294 315 329 339 348 355 360 2 3 4 4 4 3 2 1 0 357 349 336 313 290 273 260 248 238 230 227 227 228 227
212 219 231 244 252 258 263 270 276 281 284 283 280 276 271 271 268 269 272 286 306 323 336 347 355 360 3 5 6 7 7 7 7 6 5 5 1 352 336 313 289 267 249 238 230 227 224 225 224
212 220 235 247 251 256 263 273 278 284 285 282 277 268 262 260 256 259 265 276 295 314 331 344 353 358 2 4 6 8 9 9 11 12 11 10 9 5 356 343 320 286 256 239 229 225 224 225 225
214 224 237 247 254 261 270 278 283 285 285 281 273 262 256 250 246 250 260 268 284 304 325 339 349 355 359 2 6 8 9 10 12 14 16 16 17 16 14 10 1 336 265 239 228 223 223 225 226
218 228 238 248 258 269 274 281 285 287 284 278 268 256 250 244 240 244 254 263 277 297 317 332 344 351 355 358 2 5 8 10 13 15 17 20 22 22 22 21 21 21 15 236 224 222 224 224 224
220 231 242 251 262 272 280 286 286 285 280 273 264 252 245 240 237 240 248 258 271 292 313 329 339 346 351 355 359 3 6 10 13 15 17 20 23 26 28 30 31 34 38 48 205 215 224 228 224
226 238 248 258 269 277 282 289 290 283 276 269 259 248 241 235 233 237 245 254 267 288 308 325 337 344 348 352 356 360 4 8 12 15 18 20 23 25 28 31 33 36 40 44 72 199 221 229 230
232 244 255 267 275 280 282 289 290 280 271 262 252 245 237 231 230 234 241 251 263 280 302 321 335 343 347 350 353 358 3 7 11 15 18 21 24 27 29 31 33 35 37 38 40 23 267 242 233
239 247 256 268 276 282 284 288 285 274 266 259 250 243 236 230 230 234 240 249 258 273 296 317 332 342 346 349 352 357 1 5 9 13 17 20 23 26 28 30 32 34 37 39 40 32 349 280 249
244 251 260 270 276 282 284 284 278 270 263 257 250 243 236 231 232 234 239 247 253 265 286 310 328 339 345 348 351 355 360 3 6 10 14 18 21 24 26 28 29 31 33 37 38 35 20 344 280
253 260 266 273 280 283 282 281 275 267 262 256 250 244 238 234 233 234 237 242 248 259 277 301 321 334 342 349 353 356 359 2 5 8 11 14 17 20 22 24 26 28 28 30 31 30 23 12 338
258 264 268 272 276 283 282 278 272 266 261 257 252 246 240 236 233 233 235 238 244 254 269 290 312 327 339 348 353 356 358 360 2 5 7 9 10 12 15 16 18 20 22 23 23 23 21 17 9
264 269 272 275 277 277 279 276 269 266 261 257 252 246 241 238 234 233 233 235 240 249 263 281 300 317 332 343 350 353 356 358 359 360 0 1 1 2 3 4 6 8 11 12 11 10 9 7 2
Height
5892 5892 5892 5892 5893 5893 5892 5892 5891 5891 5891 5890 5890 5889 5889 5888 5888 5889 5885 5882 5880 5879 5877 5876 5875 5874 5873 5872 5871 5870 5869 5869 5868 5868 5868 5867 5867 5867 5867 5867 5868 5868 5868 5868 5869 5869 5869 5870 5871
5891 5891 5892 5892 5892 5892 5892 5890 5890 5890 5889 5888 5888 5887 5886 5885 5884 5883 5881 5879 5877 5875 5874 5873 5871 5870 5869 5868 5867 5866 5865 5864 5863 5863 5863 5863 5864 5863 5863 5864 5864 5864 5864 5865 5866 5866 5866 5867 5868
5890 5889 5891 5891 5890 5890 5890 5889 5888 5887 5887 5886 5886 5885 5884 5883 5882 5880 5878 5876 5874 5872 5870 5869 5868 5866 5865 5864 5863 5862 5861 5859 5858 5858 5858 5858 5858 5859 5859 5859 5860 5860 5860 5861 5862 5862 5863 5864 5864
5888 5889 5889 5890 5888 5888 5888 5887 5885 5885 5885 5884 5883 5882 5881 5880 5878 5877 5874 5872 5871 5869 5867 5865 5863 5862 5860 5859 5858 5857 5855 5854 5853 5853 5852 5852 5853 5853 5854 5854 5855 5855 5856 5857 5858 5858 5859 5860 5861
5886 5887 5888 5887 5886 5886 5886 5885 5884 5883 5883 5882 5881 5880 5878 5877 5875 5873 5871 5869 5867 5865 5863 5861 5859 5857 5855 5854 5852 5851 5850 5848 5847 5847 5846 5846 5847 5847 5848 5849 5849 5850 5851 5852 5853 5854 5855 5856 5858
5884 5885 5886 5885 5885 5884 5884 5883 5882 5881 5880 5879 5878 5877 5876 5874 5872 5870 5868 5866 5863 5861 5859 5857 5855 5853 5851 5849 5847 5845 5844 5842 5841 5841 5840 5840 5840 5841 5842 5842 5843 5844 5845 5846 5848 5849 5850 5852 5854
5882 5882 5883 5882 5883 5882 5882 5881 5880 5879 5878 5877 5876 5874 5873 5871 5869 5867 5865 5863 5860 5858 5856 5853 5851 5849 5847 5844 5842 5840 5839 5837 5836 5835 5834 5834 5834 5834 5835 5836 5837 5838 5839 5841 5842 5844 5846 5847 5849
5878 5880 5880 5880 5880 5880 5880 5879 5878 5877 5876 5875 5873 5872 5870 5869 5866 5864 5862 5860 5858 5855 5853 5851 5848 5846 5843 5841 5838 5836 5834 5832 5830 5829 5828 5827 5827 5827 5827 5829 5830 5831 5833 5834 5837 5839 5841 5843 5845
5875 5878 5877 5877 5878 5878 5877 5876 5876 5874 5873 5872 5870 5869 5868 5866 5864 5862 5860 5857 5855 5853 5851 5848 5846 5843 5840 5838 5835 5832 5830 5828 5826 5824 5823 5822 5821 5821 5821 5822 5823 5825 5826 5828 5831 5833 5836 5838 5840
5871 5873 5874 5875 5875 5875 5874 5874 5873 5871 5870 5869 5867 5866 5865 5863 5861 5859 5857 5855 5853 5851 5849 5846 5843 5841 5838 5835 5832 5829 5826 5824 5821 5819 5818 5816 5815 5815 5814 5815 5816 5818 5820 5822 5824 5827 5829 5832 5835
5867 5869 5870 5871 5872 5872 5872 5871 5870 5869 5868 5866 5865 5864 5862 5861 5859 5857 5856 5854 5851 5849 5847 5844 5841 5839 5836 5832 5829 5826 5823 5820 5818 5815 5813 5811 5810 5809 5809 5809 5810 5812 5814 5816 5819 5821 5824 5827 5829
5864 5865 5867 5868 5869 5869 5869 5868 5867 5866 5866 5864 5863 5862 5860 5859 5857 5855 5854 5852 5850 5847 5845 5843 5840 5837 5834 5830 5827 5824 5820 5817 5814 5811 5809 5807 5805 5804 5804 5804 5805 5806 5808 5810 5813 5816 5819 5822 5825
5860 5862 5864 5865 5866 5866 5866 5866 5865 5864 5863 5862 5860 5859 5858 5857 5855 5854 5852 5851 5848 5846 5844 5842 5839 5836 5832 5829 5825 5822 5818 5815 5811 5808 5805 5802 5801 5800 5799 5799 5800 5801 5802 5805 5807 5811 5814 5817 5820
5857 5859 5861 5862 5863 5864 5864 5863 5862 5862 5861 5860 5859 5857 5856 5855 5854 5852 5851 5849 5847 5845 5843 5841 5838 5835 5831 5828 5824 5820 5816 5812 5809 5805 5801 5799 5797 5796 5795 5795 5796 5796 5797 5800 5802 5805 5809 5812 5816
5854 5857 5859 5860 5861 5861 5862 5861 5860 5859 5858 5857 5857 5855 5854 5853 5852 5851 5850 5848 5846 5845 5843 5840 5837 5834 5830 5827 5823 5819 5815 5811 5806 5802 5798 5795 5793 5792 5791 5791 5791 5792 5793 5795 5797 5800 5804 5807 5810
5852 5855 5857 5858 5858 5859 5861 5859 5858 5857 5856 5855 5854 5853 5853 5852 5851 5850 5849 5847 5846 5844 5842 5840 5837 5833 5830 5826 5822 5818 5814 5809 5805 5801 5797 5793 5791 5789 5788 5788 5788 5788 5789 5791 5793 5796 5799 5802 5806
5849 5852 5854 5856 5856 5856 5857 5856 5855 5854 5854 5853 5852 5851 5851 5850 5849 5849 5848 5847 5845 5843 5841 5839 5836 5833 5829 5825 5821 5817 5813 5809 5804 5800 5796 5792 5789 5787 5786 5785 5785 5785 5786 5787 5789 5792 5795 5798 5801
5847 5849 5851 5852 5853 5853 5853 5853 5853 5852 5851 5851 5850 5849 5849 5848 5848 5847 5847 5846 5844 5843 5841 5838 5835 5832 5828 5825 5821 5817 5813 5808 5804 5800 5795 5792 5789 5786 5784 5783 5783 5782 5783 5784 5786 5788 5791 5794 5797
5844 5847 5849 5850 5850 5850 5850 5850 5850 5850 5849 5848 5848 5847 5847 5847 5847 5846 5846 5845 5843 5842 5840 5837 5835 5831 5828 5824 5821 5817 5812 5808 5804 5800 5795 5792 5789 5786 5784 5782 5781 5780 5780 5781 5783 5785 5788 5791 5794
5843 5845 5846 5847 5847 5848 5848 5848 5847 5847 5846 5846 5845 5845 5845 5845 5845 5845 5845 5844 5843 5841 5839 5837 5834 5831 5827 5824 5820 5816 5812 5808 5804 5800 5796 5792 5789 5786 5783 5781 5780 5779 5779 5779 5781 5783 5785 5788 5791
5841 5842 5844 5844 5845 5845 5846 5846 5845 5844 5843 5843 5843 5843 5843 5843 5844 5844 5843 5843 5842 5840 5838 5836 5833 5830 5827 5824 5820 5816 5813 5809 5805 5801 5797 5793 5789 5786 5783 5781 5780 5779 5778 5778 5779 5780 5783 5785 5788
5838 5840 5841 5842 5843 5843 5844 5844 5843 5841 5841 5841 5840 5841 5841 5842 5842 5842 5842 5842 5841 5839 5837 5835 5832 5830 5826 5823 5820 5816 5813 5809 5805 5801 5797 5794 5790 5787 5784 5782 5780 5779 5778 5778 5778 5779 5781 5783 5785
5837 5838 5839 5840 5841 5841 5841 5841 5841 5839 5838 5838 5838 5838 5839 5840 5840 5840 5840 5840 5839 5838 5836 5834 5832 5829 5826 5823 5820 5816 5813 5809 5806 5802 5798 5795 5791 5788 5786 5783 5781 5779 5779 5778 5778 5779 5780 5781 5782
5835 5837 5837 5838 5839 5840 5839 5838 5839 5837 5836 5836 5836 5836 5837 5838 5838 5838 5839 5839 5838 5837 5835 5833 5831 5828 5825 5822 5819 5816 5813 5809 5806 5803 5799 5796 5793 5790 5787 5785 5782 5781 5779 5779 5778 5778 5779 5780 5780
5834 5836 5837 5837 5837 5837 5836 5836 5836 5834 5833 5833 5834 5834 5835 5835 5836 5837 5837 5837 5836 5835 5834 5832 5830 5827 5825 5822 5819 5816 5813 5810 5806 5803 5800 5797 5794 5791 5788 5786 5784 5782 5780 5779 5778 5778 5778 5779 5779
5832 5834 5835 5836 5835 5835 5833 5833 5833 5831 5831 5831 5831 5832 5832 5833 5834 5835 5835 5835 5835 5834 5833 5831 5829 5827 5824 5821 5818 5815 5812 5809 5807 5804 5801 5798 5795 5792 5790 5787 5785 5783 5782 5780 5779 5778 5778 5778 5778
5830 5831 5832 5832 5832 5832 5831 5831 5830 5828 5828 5828 5829 5829 5830 5831 5832 5832 5833 5833 5833 5832 5831 5830 5828 5826 5823 5820 5818 5815 5812 5809 5807 5804 5801 5798 5796 5793 5791 5789 5786 5784 5783 5781 5780 5779 5778 5777 5776
5828 5828 5829 5829 5829 5829 5829 5828 5827 5826 5825 5826 5826 5827 5827 5828 5829 5830 5830 5831 5831 5831 5830 5828 5827 5825 5822 5820 5817 5814 5812 5809 5806 5804 5801 5799 5796 5794 5792 5790 5788 5786 5784 5782 5780 5779 5778 5777 5775
5826 5826 5826 5826 5826 5826 5825 5827 5823 5823 5822 5823 5823 5824 5825 5826 5826 5827 5828 5828 5829 5829 5828 5827 5825 5823 5821 5819 5816 5814 5811 5809 5806 5804 5801 5799 5797 5795 5792 5790 5788 5786 5784 5783 5781 5779 5778 5777 5775
5823 5823 5823 5823 5822 5822 5821 5825 5820 5819 5819 5819 5820 5821 5822 5823 5824 5824 5825 5826 5826 5826 5826 5825 5824 5822 5820 5818 5816 5813 5811 5808 5806 5803 5801 5799 5797 5795 5792 5790 5788 5786 5785 5783 5781 5780 5778 5776 5775